Location: Observatoire
(46.1952°N, 5.3391°E)
Time: 21:53:03
(UTC+01:00)

A-11 Canister half - Pass Details

Date: 18 February 2026
Orbit: 1525 x 1683 km, 47.3° (Epoch: 5 March)

Event Time Altitude Azimuth Distance (km) Brightness Sun altitude
Rises 15:58:41 0° 211° (SSW) 4,739 12.9 18.8°
Reaches altitude 10° 16:02:01 10° 204° (SSW) 3,738 12.4 18.4°
Maximum altitude 16:10:30 40° 139° (SE) 2,133 10.0 17.3°
Drops below altitude 10° 16:18:53 10° 75° (ENE) 3,693 10.5 16.1°
Sets 16:22:08 0° 68° (ENE) 4,678 10.9 15.7°
